Mojave, CA

1:45 AM PDT on September 21, 2019 (GMT -0700)
Mojave

Weather History for KMHV - August, 2019

Change the Weather History Date:

Sunday, August 25, 2019

  Actual Average Record
Temperature  
Mean Temperature 88 °F -  
Max Temperature 98 °F 93 °F 103 °F (1985)
Min Temperature 77 °F 64 °F 52 °F (1983)
Cooling Degree Days 22    
Growing Degree Days 38 (Base 50)    
Moisture  
Dew Point 50 °F    
Average Humidity 31    
Maximum Humidity 50    
Minimum Humidity 12    
Precipitation  
Precipitation 0.00 in - - ()
Sea Level Pressure  
Sea Level Pressure 30.01 in    
Wind  
Wind Speed 12 mph (West)    
Max Wind Speed 28 mph    
Max Gust Speed 46 mph    
Visibility 10 miles    
Events      
Averages and records for this station are not official NWS values.
T = Trace of Precipitation, MM = Missing Value Source: NWS Daily Summary

Daily Weather History Graph

Daily Weather History Graph

Search for Another Location

Airport or City:

Astronomy

Aug. 25, 2019 Rise Set
Actual Time 6:19 AM PDT 7:28 PM PDT
Civil Twilight 5:53 AM PDT 7:55 PM PDT
Nautical Twilight 5:22 AM PDT 8:26 PM PDT
Astronomical Twilight 4:50 AM PDT 8:58 PM PDT
Moon 1:05 AM PDT (8/25) 3:46 PM PDT (8/25)
Length of Visible Light 14h 01m
Length of Day
13h 08m
Waning Crescent, 28% of the Moon is Illuminated
Aug 25
Waning Crescent
Aug 30
New
Sep 5
First Quarter
Sep 13
Full
Sep 21
Last Quarter

Hourly Weather History & Observations

Time (PDT) Temp. Heat Index Dew Point Humidity Pressure Visibility Wind Dir Wind Speed Gust Speed Precip Events Conditions
12:00 AM 78.8 °F - 51.8 °F 39% 30.04 in 10.0 mi SW 6.9 mph - N/A   Clear
12:20 AM 77.0 °F - 51.8 °F 41% 30.04 in 10.0 mi SW 4.6 mph - N/A   Clear
12:40 AM 77.0 °F - 51.8 °F 41% 30.04 in 10.0 mi WSW 4.6 mph - N/A   Clear
1:00 AM 77.0 °F - 53.6 °F 44% 30.03 in 10.0 mi WSW 8.1 mph - N/A   Clear
1:20 AM 78.8 °F - 53.6 °F 42% 30.03 in 10.0 mi WSW 8.1 mph - N/A   Clear
1:40 AM 77.0 °F - 53.6 °F 44% 30.03 in 10.0 mi WSW 8.1 mph - N/A   Clear
2:00 AM 77.0 °F - 53.6 °F 44% 30.03 in 10.0 mi West 8.1 mph - N/A   Clear
2:20 AM 77.0 °F - 53.6 °F 44% 30.03 in 10.0 mi West 9.2 mph - N/A   Clear
2:40 AM 78.8 °F - 53.6 °F 42% 30.03 in 10.0 mi WSW 9.2 mph - N/A   Clear
3:00 AM 78.8 °F - 53.6 °F 42% 30.03 in 10.0 mi West 9.2 mph - N/A   Clear
3:20 AM 78.8 °F - 53.6 °F 42% 30.03 in 10.0 mi WSW 5.8 mph 11.5 mph N/A   Clear
3:40 AM 78.8 °F - 53.6 °F 42% 30.03 in 10.0 mi West 9.2 mph - N/A   Clear
4:00 AM 77.0 °F - 53.6 °F 44% 30.03 in 10.0 mi WSW 6.9 mph 12.7 mph N/A   Clear
4:20 AM 77.0 °F - 53.6 °F 44% 30.03 in 10.0 mi WSW 9.2 mph - N/A   Clear
4:40 AM 78.8 °F - 53.6 °F 42% 30.04 in 10.0 mi West 10.4 mph 17.3 mph N/A   Clear
5:00 AM 77.0 °F - 53.6 °F 44% 30.03 in 10.0 mi West 10.4 mph - N/A   Clear
5:20 AM 78.8 °F - 55.4 °F 44% 30.04 in 10.0 mi WSW 11.5 mph - N/A   Clear
5:40 AM 77.0 °F - 55.4 °F 47% 30.04 in 10.0 mi West 8.1 mph - N/A   Clear
6:00 AM 77.0 °F - 55.4 °F 47% 30.04 in 10.0 mi West 10.4 mph - N/A   Clear
6:20 AM 77.0 °F - 57.2 °F 50% 30.04 in 10.0 mi West 12.7 mph - N/A   Clear
6:40 AM 77.0 °F - 55.4 °F 47% 30.05 in 10.0 mi WNW 10.4 mph - N/A   Clear
7:00 AM 78.8 °F - 55.4 °F 44% 30.06 in 10.0 mi West 6.9 mph - N/A   Clear
7:20 AM 80.6 °F 80.8 °F 57.2 °F 45% 30.06 in 10.0 mi WSW 6.9 mph - N/A   Clear
7:40 AM 78.8 °F - 57.2 °F 47% 30.06 in 10.0 mi WSW 12.7 mph - N/A   Clear
8:00 AM 80.6 °F 80.8 °F 57.2 °F 45% 30.07 in 10.0 mi WSW 12.7 mph - N/A   Clear
8:20 AM 82.4 °F 82.0 °F 57.2 °F 42% 30.07 in 10.0 mi WSW 13.8 mph - N/A   Clear
8:40 AM 84.2 °F 83.5 °F 57.2 °F 40% 30.07 in 10.0 mi West 13.8 mph - N/A   Clear
9:00 AM 84.2 °F 83.5 °F 57.2 °F 40% 30.07 in 10.0 mi WSW 17.3 mph - N/A   Clear
9:20 AM 86.0 °F 84.5 °F 55.4 °F 35% 30.06 in 10.0 mi WSW 16.1 mph - N/A   Clear
9:40 AM 87.8 °F 86.1 °F 55.4 °F 33% 30.06 in 10.0 mi WSW 15.0 mph 20.7 mph N/A   Clear
10:00 AM 89.6 °F 87.3 °F 53.6 °F 29% 30.06 in 10.0 mi WSW 12.7 mph - N/A   Clear
10:20 AM 91.4 °F 89.1 °F 53.6 °F 28% 30.06 in 10.0 mi West 15.0 mph - N/A   Clear
10:40 AM 91.4 °F 89.1 °F 53.6 °F 28% 30.06 in 10.0 mi WSW 11.5 mph 17.3 mph N/A   Clear
11:00 AM 93.2 °F 90.8 °F 53.6 °F 26% 30.05 in 10.0 mi WSW 12.7 mph 18.4 mph N/A   Clear
11:20 AM 96.8 °F - 50.0 °F 20% 30.05 in 10.0 mi WNW 12.7 mph - N/A   Clear
11:40 AM 96.8 °F - 48.2 °F 19% 30.04 in 10.0 mi West 11.5 mph 19.6 mph N/A   Clear
12:00 PM 96.8 °F - 46.4 °F 18% 30.04 in 10.0 mi West 15.0 mph - N/A   Clear
12:20 PM 96.8 °F - 46.4 °F 18% 30.03 in 10.0 mi WNW 13.8 mph 20.7 mph N/A   Clear
12:40 PM 98.6 °F - 44.6 °F 16% 30.03 in 10.0 mi WNW 16.1 mph 23.0 mph N/A   Unknown
1:00 PM 98.6 °F - 44.6 °F 16% 30.03 in 10.0 mi NW 15.0 mph 24.2 mph N/A   Clear
1:20 PM 98.6 °F - 42.8 °F 15% 30.02 in 10.0 mi WNW 18.4 mph 25.3 mph N/A   Clear
1:40 PM 98.6 °F - 41.0 °F 14% 30.02 in 10.0 mi WNW 18.4 mph 24.2 mph N/A   Clear
2:00 PM 98.6 °F - 41.0 °F 14% 30.02 in 10.0 mi WNW 16.1 mph 23.0 mph N/A   Clear
2:20 PM 98.6 °F - 39.2 °F 13% 30.01 in 10.0 mi WNW 18.4 mph 25.3 mph N/A   Clear
2:40 PM 98.6 °F - 41.0 °F 14% 30.00 in 10.0 mi NW 18.4 mph 25.3 mph N/A   Clear
3:00 PM 98.6 °F - 39.2 °F 13% 30.00 in 10.0 mi WNW 21.9 mph - N/A   Clear
3:20 PM 98.6 °F - 37.4 °F 12% 29.99 in 10.0 mi WNW 19.6 mph 28.8 mph N/A   Clear
3:40 PM 98.6 °F - 37.4 °F 12% 29.99 in 10.0 mi WNW 23.0 mph 29.9 mph N/A   Clear
4:00 PM 98.6 °F - 37.4 °F 12% 29.99 in 10.0 mi WNW 18.4 mph 32.2 mph N/A   Clear
4:20 PM 96.8 °F - 37.4 °F 13% 29.98 in 10.0 mi North - - N/A   Clear
4:40 PM 96.8 °F - 39.2 °F 14% 29.98 in 10.0 mi WNW 24.2 mph - N/A   Clear
5:00 PM 96.8 °F - 39.2 °F 14% 29.97 in 10.0 mi North - - N/A   Unknown
5:20 PM 95.0 °F - 41.0 °F 15% 29.97 in 10.0 mi WNW 20.7 mph 28.8 mph N/A   Unknown
5:40 PM 95.0 °F - 41.0 °F 15% 29.97 in 10.0 mi WNW 23.0 mph 29.9 mph N/A   Clear
6:00 PM - - - N/A% 29.97 in 10.0 mi North - - N/A   Clear
6:20 PM 93.2 °F - 46.4 °F 20% 29.96 in 10.0 mi WNW 17.3 mph 26.5 mph N/A   Unknown
6:40 PM 91.4 °F - 46.4 °F 21% 29.96 in 10.0 mi WNW 17.3 mph 27.6 mph N/A   Clear
7:00 PM 89.6 °F - 48.2 °F 24% 29.96 in 10.0 mi WNW 25.3 mph 33.4 mph N/A   Clear
7:20 PM 87.8 °F - 50.0 °F 27% 29.96 in 10.0 mi WNW 26.5 mph 36.8 mph N/A   Clear
7:40 PM 86.0 °F - 50.0 °F 29% 29.96 in 10.0 mi NW 25.3 mph 38.0 mph N/A   Clear
8:00 PM 86.0 °F - 51.8 °F 31% 29.97 in 10.0 mi WNW 24.2 mph 36.8 mph N/A   Clear
8:20 PM 84.2 °F - 51.8 °F 33% 29.98 in 10.0 mi West 19.6 mph 29.9 mph N/A   Clear
8:40 PM 84.2 °F 82.8 °F 53.6 °F 35% 29.98 in 10.0 mi West 18.4 mph 25.3 mph N/A   Clear
9:00 PM 84.2 °F - 51.8 °F 33% 29.98 in 10.0 mi WNW 21.9 mph 31.1 mph N/A   Clear
9:20 PM 84.2 °F - 50.0 °F 30% 29.98 in 10.0 mi WNW 19.6 mph 32.2 mph N/A   Clear
9:40 PM 84.2 °F - 50.0 °F 30% 29.97 in 10.0 mi NW 18.4 mph 36.8 mph N/A   Clear
10:00 PM 84.2 °F - 48.2 °F 29% 29.97 in 10.0 mi NW 23.0 mph 34.5 mph N/A   Clear
10:20 PM 84.2 °F - 50.0 °F 30% 29.96 in 10.0 mi WNW 23.0 mph 35.7 mph N/A   Clear
10:40 PM 84.2 °F - 50.0 °F 30% 29.96 in 10.0 mi WNW 24.2 mph 46.0 mph N/A   Clear
11:00 PM 84.2 °F - 50.0 °F 30% 29.96 in 10.0 mi WNW 25.3 mph 34.5 mph N/A   Clear
11:20 PM 84.2 °F - 50.0 °F 30% 29.96 in 10.0 mi NW 21.9 mph 36.8 mph N/A   Clear
11:40 PM 84.2 °F - 51.8 °F 33% 29.95 in 10.0 mi WNW 27.6 mph 34.5 mph N/A   Clear